Location: Cherry Grove
(44.1968°N, 92.8624°W)
Time: 22:53:15
(UTC-05:00)

N. Korean satellite - Visible Passes

Search period start: 16 October 2017 00:00
Search period end: 26 October 2017 00:00
Orbit: 459 x 517 km, 97.2° (Epoch: 16 October)

Date Brightness Start Highest point End Pass type
(mag) Time Alt. Az. Time Alt. Az. Time Alt. Az.
16 Oct 6.5 19:12:56 10° SSE 19:16:29 87° WSW 19:20:01 10° NNW visible
17 Oct 6.8 18:49:49 10° SSE 18:53:12 45° ENE 18:56:34 10° N visible
17 Oct 10.1 20:25:45 10° WSW 20:26:59 11° W 20:28:12 10° WNW visible
18 Oct 9.3 20:00:43 10° SW 20:03:28 21° W 20:06:14 10° NW visible
19 Oct 7.9 19:36:41 10° S 19:40:03 41° W 19:43:22 10° NNW visible
20 Oct 6.5 19:13:09 10° SSE 19:16:40 86° WSW 19:20:10 10° NNW visible
21 Oct 6.8 18:50:01 10° SSE 18:53:22 45° ENE 18:56:43 10° N visible
21 Oct 10.1 20:26:05 10° WSW 20:27:09 11° W 20:28:13 10° WNW visible
22 Oct 9.3 20:00:55 10° SW 20:03:37 21° W 20:06:19 10° NW visible
23 Oct 7.9 19:36:52 10° S 19:40:10 40° W 19:43:28 10° NNW visible
24 Oct 10.1 07:03:36 10° ENE 07:05:26 14° E 07:07:17 10° ESE visible
24 Oct 6.5 19:13:17 10° SSE 19:16:46 85° WSW 19:20:15 10° NNW visible
25 Oct 6.7 18:50:07 10° SSE 18:53:27 46° ENE 18:56:47 10° N visible
25 Oct 10.1 20:26:20 10° WSW 20:27:14 11° W 20:28:10 10° WNW visible
